[[{"header":{"parameterUnit":"m.s-1","parameterCategory":1,"la1":30.2991,"la2":30.254,"lo1":-89.0895,"lo2":-89.0444,"dy":0.0017,"dx":0.0017,"nx":28,"ny":28,"refTime":"2026-02-15T09:00:00:Z","depth":0,"parameterNumber":2,"parameterNumberName":"U-component_of_WINDS"},"data":[0,0,0,0,0,0,0,0,0,0,0,0,0,0,0,0,0,0,0,0,0,0,0,0,0,0,0,0,0,0,0,0,0,0,0,0,0,0,0,0,0,0,0,0,0,0,0,0,0,0,0,0,0,0,0,0,0,0,2.3133,2.3133,0,2.3175,2.3176,2.3176,2.3163,2.3162,2.3161,2.3161,2.3205,2.3207,2.3209,0,0,0,0,0,0,0,0,0,0,0,0,0,2.3041,2.3043,2.3133,2.3133,2.3134,2.3175,2.3176,2.3177,2.3163,2.3162,2.3161,2.316,2.3204,2.3207,2.3209,0,0,0,0,0,0,0,0,0,0,0,0,0,2.3082,2.3044,2.3132,2.3132,2.3132,2.3175,2.3176,2.3177,2.3164,2.3162,2.3161,2.316,2.3203,2.3206,2.3209,2.3255,0,0,2.3219,2.322,0,0,0,0,0,0,0,0,2.308,2.3086,2.3132,2.3132,2.3133,2.3163,2.316,2.3203,2.3164,2.3152,2.3161,2.3159,2.3192,2.3196,2.3207,2.3257,2.3259,2.3219,2.3221,2.3222,2.3223,0,0,0,0,0,0,0,2.3077,2.3084,2.315,2.3132,2.3133,2.313,2.3135,2.3168,2.3179,2.3153,2.3152,2.3157,2.3192,2.3204,2.3208,2.326,2.3219,2.3221,2.3223,2.3225,2.3353,2.3354,0,0,0,0,0,0,2.3074,2.3081,2.3148,2.3151,2.3102,2.3133,2.3138,2.3154,2.3179,2.3181,2.3158,2.3156,2.3199,2.3204,2.3209,2.3266,2.3222,2.3225,2.3227,2.3351,2.3353,2.3355,0,0,0,0,0,0,2.3072,2.308,2.3146,2.3116,2.3124,2.3136,2.3155,2.3156,2.3168,2.3183,2.3185,2.3168,2.3199,2.3205,2.3244,2.3267,2.3226,2.3229,2.3349,2.3352,2.3354,2.3379,0,0,0,0,0,0,2.3069,2.3079,2.3096,2.3116,2.3126,2.318,2.3156,2.3158,2.3173,2.3171,2.3193,2.3195,2.3198,2.324,2.3247,2.3271,2.3231,2.3347,2.335,2.3353,2.3376,2.3382,2.3387,0,0,0,0,0,2.3066,2.3101,2.3097,2.3105,2.3147,2.3181,2.3187,2.319,2.3175,2.3193,2.3203,2.3194,2.3264,2.3244,2.3252,2.3277,2.3346,2.3349,2.3353,2.3374,2.3381,2.3387,0,0,0,0,0,0,2.3082,2.3103,2.3099,2.3142,2.316,2.3179,2.3201,2.3197,2.3219,2.3216,2.3219,2.3224,2.3265,2.3275,2.3253,2.3324,2.3303,2.3308,2.3316,2.3322,2.3328,2.3324,2.3234,0,0,0,0,0,2.3091,2.3117,2.3134,2.317,2.3179,2.3189,2.3204,2.3205,2.3224,2.3231,2.3244,2.3263,2.3289,2.3306,2.3331,2.3378,2.3383,2.3399,2.3404,2.3409,2.3413,2.3441,2.3448,2.3366,2.3366,2.3366,0,0,2.3109,2.3124,2.314,2.3174,2.3188,2.3215,2.3195,2.3225,2.3245,2.3236,2.3274,2.3284,2.3306,2.335,2.3369,2.3359,2.3437,2.3413,2.3417,2.3419,2.3445,2.3453,2.346,2.3369,2.3368,2.3368,0,0,2.3156,2.3169,2.3201,2.3216,2.3238,2.3245,2.3253,2.3273,2.328,2.3318,2.3312,2.3338,2.3382,2.3399,2.3413,2.3469,2.3463,2.3477,2.3504,2.3531,2.3537,2.3543,2.3564,2.3572,2.3481,2.3481,2.3481,0,2.3175,2.3216,2.3218,2.3249,2.3265,2.3258,2.3291,2.3306,2.3335,2.3347,2.3335,2.3393,2.3406,2.3455,2.3469,2.348,2.349,2.3474,2.3536,2.3542,2.3547,2.3568,2.3575,2.3483,2.3483,2.3483,2.3483,0,2.3239,2.3268,2.3291,2.332,2.3339,2.337,2.3379,2.3397,2.3397,2.3406,2.3446,2.3463,2.3492,2.3504,2.3503,2.3553,2.3546,2.3535,2.3514,2.3557,2.3576,2.3584,2.3485,2.3485,2.3484,2.3484,0,0,2.3296,2.3327,2.3336,2.335,2.3375,2.3397,2.343,2.3459,2.3475,2.3496,2.3524,2.3564,2.3555,2.3571,2.3573,2.3596,2.3641,2.3583,2.3583,2.3594,2.3698,2.3706,2.3715,2.3638,2.3639,2.364,2.3697,0,2.3345,2.3401,2.3406,2.3457,2.3485,2.348,2.3509,2.3528,2.3537,2.3562,2.3572,2.3601,2.3586,2.3596,2.3619,2.3631,2.3662,2.3627,2.3664,2.3666,2.3659,2.3725,2.3733,2.3786,2.3704,2.3706,2.3706,0,2.341,2.3433,2.3488,2.3511,2.3523,2.3548,2.3576,2.36,2.3622,2.3627,2.3647,2.3646,2.3681,2.3659,2.3708,2.3683,2.3699,2.3708,2.371,2.3714,2.3689,2.3731,2.3802,2.381,2.3718,2.3717,2.3716,0,2.3447,2.3492,2.3531,2.3543,2.3571,2.3589,2.3602,2.3623,2.3641,2.3666,2.3677,2.3706,2.3722,2.3744,2.3752,2.3735,2.3801,2.3779,2.3807,2.3807,2.3821,2.382,2.3896,2.3831,2.3831,2.383,2.383,0,2.3501,2.3535,2.3548,2.3572,2.361,2.3616,2.3654,2.3666,2.3685,2.3712,2.371,2.3735,2.3744,2.3771,2.3777,2.3818,2.3825,2.3831,2.3832,2.3831,2.383,2.3841,2.3838,2.3832,2.3832,2.3832,2.3831,0,2.3549,2.3559,2.3601,2.3625,2.3632,2.3659,2.3679,2.3703,2.3713,2.3747,2.3756,2.3771,2.3803,2.3813,2.3852,2.3856,2.3904,2.3902,2.3896,2.3896,2.3924,2.3922,2.4011,2.4023,2.3949,2.395,2.395,0,2.3583,2.3609,2.3636,2.3654,2.3667,2.3696,2.3715,2.3722,2.3742,2.3771,2.3791,2.3823,2.3849,2.3902,2.3917,2.3947,2.3946,2.3975,2.395,2.3949,2.3947,2.3946,2.3949,2.398,2.398,2.3981,2.3981,0,2.3643,2.3648,2.3674,2.3703,2.3726,2.3749,2.3772,2.3787,2.3798,2.382,2.3853,2.3874,2.3914,2.3947,2.3978,2.3992,2.3989,2.3989,2.3998,2.3997,2.3993,2.3997,2.3909,2.3987,2.3987,2.3986,2.3986,2.3986,2.3686,2.3709,2.3732,2.3763,2.3781,2.3802,2.3826,2.384,2.3867,2.3901,2.3904,2.3941,2.3965,2.4006,2.4022,2.4052,2.4043,2.4055,2.4058,2.4061,2.4064,2.3989,2.4057,2.4057,2.4057,2.4057,2.4057,0,2.3746,2.3762,2.379,2.3822,2.3846,2.3842,2.3867,2.3888,2.392,2.3943,2.3969,2.4008,2.4041,2.4059,2.4091,2.4112,2.4111,2.412,2.4119,2.4122,2.4069,2.4059,2.412,2.412,2.412,2.412,2.412,2.412,2.3781,2.3821,2.3829,2.3878,2.3893,2.3929,2.3944,2.3965,2.3983,2.4027,2.4054,2.4066,2.4088,2.4122,2.4152,2.4157,2.4169,2.4179,2.4183,2.4132,2.4126,2.412,2.411,2.4181,2.4181,2.4234,2.4235,2.4235]},{"header":{"parameterUnit":"m.s-1","parameterCategory":1,"la1":30.2991,"la2":30.254,"lo1":-89.0895,"lo2":-89.0444,"dy":0.0017,"dx":0.0017,"nx":28,"ny":28,"refTime":"2026-02-15T09:00:00:Z","depth":0,"parameterNumber":3,"parameterNumberName":"V-component_of_WINDS"},"data":[0,0,0,0,0,0,0,0,0,0,0,0,0,0,0,0,0,0,0,0,0,0,0,0,0,0,0,0,0,0,0,0,0,0,0,0,0,0,0,0,0,0,0,0,0,0,0,0,0,0,0,0,0,0,0,0,0,0,-6.3275,-6.3276,0,-6.3413,-6.3414,-6.3416,-6.3399,-6.3397,-6.3395,-6.3392,-6.353,-6.3536,-6.3541,0,0,0,0,0,0,0,0,0,0,0,0,0,-6.2994,-6.2999,-6.3275,-6.3276,-6.3278,-6.3413,-6.3415,-6.3416,-6.3399,-6.3397,-6.3394,-6.3391,-6.3528,-6.3535,-6.3542,0,0,0,0,0,0,0,0,0,0,0,0,0,-6.3122,-6.3001,-6.3274,-6.3286,-6.3288,-6.3412,-6.3415,-6.3417,-6.34,-6.3397,-6.3393,-6.339,-6.3526,-6.3534,-6.3543,-6.3663,0,0,-6.3569,-6.3573,0,0,0,0,0,0,0,0,-6.3115,-6.3133,-6.3283,-6.3285,-6.3288,-6.3385,-6.3366,-6.3499,-6.3401,-6.3358,-6.3392,-6.3389,-6.3484,-6.3496,-6.3529,-6.3669,-6.3675,-6.357,-6.3575,-6.3579,-6.3581,0,0,0,0,0,0,0,-6.3106,-6.3127,-6.3329,-6.3285,-6.3288,-6.3284,-6.3298,-6.3391,-6.3438,-6.3361,-6.336,-6.3377,-6.3485,-6.3521,-6.3532,-6.3677,-6.357,-6.3577,-6.3583,-6.3586,-6.3925,-6.3929,0,0,0,0,0,0,-6.3095,-6.3119,-6.3325,-6.3333,-6.3192,-6.3291,-6.3308,-6.3358,-6.3437,-6.3446,-6.338,-6.3376,-6.3508,-6.3522,-6.3537,-6.3685,-6.3579,-6.3587,-6.3592,-6.3921,-6.3926,-6.393,0,0,0,0,0,0,-6.3089,-6.3113,-6.3319,-6.3226,-6.3252,-6.33,-6.3356,-6.3362,-6.3398,-6.3451,-6.3459,-6.3408,-6.3506,-6.3525,-6.3633,-6.3689,-6.3591,-6.3599,-6.3917,-6.3923,-6.3928,-6.398,0,0,0,0,0,0,-6.3081,-6.3111,-6.3158,-6.3228,-6.3257,-6.3413,-6.3359,-6.3367,-6.3413,-6.3409,-6.348,-6.3488,-6.3505,-6.362,-6.3641,-6.3699,-6.3605,-6.3912,-6.3919,-6.3926,-6.3973,-6.3987,-6.3998,0,0,0,0,0,-6.3071,-6.3165,-6.316,-6.3185,-6.3316,-6.3416,-6.3433,-6.3452,-6.3418,-6.3465,-6.3499,-6.3486,-6.368,-6.3631,-6.3655,-6.3716,-6.3908,-6.3917,-6.3926,-6.3968,-6.3984,-6.3998,0,0,0,0,0,0,-6.3099,-6.3174,-6.317,-6.3289,-6.3347,-6.3413,-6.3473,-6.3468,-6.3535,-6.3529,-6.3548,-6.3564,-6.3673,-6.3705,-6.365,-6.3838,-6.3789,-6.3803,-6.3813,-6.3829,-6.3841,-6.3831,-6.3612,0,0,0,0,0,-6.3119,-6.3195,-6.3257,-6.3356,-6.3386,-6.3425,-6.3469,-6.3479,-6.3538,-6.3562,-6.3604,-6.3662,-6.3736,-6.3784,-6.3855,-6.3978,-6.3994,-6.4032,-6.4044,-6.4054,-6.4066,-6.4136,-6.4154,-6.3959,-6.3958,-6.3958,0,0,-6.3161,-6.3212,-6.3258,-6.3363,-6.3409,-6.3487,-6.3445,-6.3528,-6.3586,-6.3574,-6.3679,-6.3712,-6.3778,-6.3894,-6.3948,-6.3925,-6.4124,-6.4065,-6.4073,-6.408,-6.4147,-6.4165,-6.4181,-6.3964,-6.3963,-6.3962,0,0,-6.3279,-6.3324,-6.3414,-6.3461,-6.3532,-6.3557,-6.3579,-6.3647,-6.3669,-6.3775,-6.3768,-6.3837,-6.3964,-6.4012,-6.4053,-6.4191,-6.4182,-6.4213,-6.4278,-6.4346,-6.4361,-6.4375,-6.4426,-6.4444,-6.4225,-6.4225,-6.4225,0,-6.3322,-6.344,-6.346,-6.3546,-6.3592,-6.3587,-6.3678,-6.3722,-6.3812,-6.3844,-6.3817,-6.3979,-6.4022,-6.4151,-6.4185,-6.4218,-6.4243,-6.4205,-6.4358,-6.4372,-6.4385,-6.4434,-6.4453,-6.4229,-6.4228,-6.4228,-6.4228,0,-6.3491,-6.3573,-6.3636,-6.3725,-6.3779,-6.3867,-6.39,-6.3952,-6.3958,-6.3986,-6.4095,-6.4148,-6.4231,-6.4262,-6.4267,-6.4392,-6.4376,-6.4353,-6.4305,-6.4407,-6.4453,-6.4472,-6.4234,-6.4232,-6.4231,-6.4231,0,0,-6.3628,-6.3729,-6.3752,-6.3794,-6.3872,-6.3936,-6.4023,-6.4106,-6.4151,-6.4213,-6.4288,-6.4397,-6.4378,-6.4424,-6.4435,-6.4494,-6.4603,-6.4465,-6.4467,-6.449,-6.4746,-6.4763,-6.4785,-6.4597,-6.4601,-6.4604,-6.4741,0,-6.3754,-6.3911,-6.3932,-6.4071,-6.4148,-6.4145,-6.4222,-6.4279,-6.4308,-6.4377,-6.4409,-6.4487,-6.4455,-6.4483,-6.4542,-6.4577,-6.4655,-6.4568,-6.4667,-6.467,-6.4652,-6.4808,-6.4826,-6.4953,-6.4759,-6.4762,-6.4764,0,-6.3921,-6.3991,-6.4138,-6.4209,-6.4242,-6.431,-6.4389,-6.4455,-6.452,-6.4537,-6.4591,-6.4595,-6.4686,-6.4634,-6.4761,-6.4701,-6.4743,-6.4767,-6.4773,-6.4783,-6.4724,-6.4824,-6.4994,-6.5014,-6.4793,-6.479,-6.4788,0,-6.4009,-6.4139,-6.4245,-6.428,-6.4364,-6.4413,-6.445,-6.4512,-6.4561,-6.4629,-6.4662,-6.4739,-6.4782,-6.4842,-6.4867,-6.4827,-6.4993,-6.4942,-6.501,-6.501,-6.5045,-6.5043,-6.5226,-6.5071,-6.5071,-6.5071,-6.507,0,-6.4147,-6.4238,-6.4285,-6.435,-6.4452,-6.4476,-6.4576,-6.4611,-6.4666,-6.4738,-6.4739,-6.4807,-6.4836,-6.4907,-6.4928,-6.503,-6.5049,-6.5066,-6.507,-6.5067,-6.5065,-6.5095,-6.5087,-6.5076,-6.5074,-6.5074,-6.5073,0,-6.4262,-6.4297,-6.4413,-6.4484,-6.4504,-6.4576,-6.4637,-6.47,-6.473,-6.4821,-6.4844,-6.489,-6.4975,-6.5007,-6.5109,-6.5123,-6.5242,-6.5239,-6.5221,-6.5223,-6.5289,-6.5283,-6.5498,-6.5529,-6.5353,-6.5355,-6.5356,0,-6.4348,-6.4419,-6.4499,-6.4548,-6.4588,-6.4666,-6.4717,-6.4744,-6.4797,-6.4877,-6.4931,-6.5016,-6.5086,-6.5221,-6.5264,-6.5343,-6.5342,-6.5412,-6.5354,-6.5349,-6.5345,-6.5341,-6.5349,-6.5423,-6.5425,-6.5426,-6.5427,0,-6.4499,-6.4514,-6.4588,-6.467,-6.4731,-6.4796,-6.4859,-6.4899,-6.4935,-6.4994,-6.5083,-6.5137,-6.5243,-6.5328,-6.541,-6.5448,-6.5445,-6.5446,-6.5466,-6.5463,-6.5451,-6.546,-6.5252,-6.5441,-6.5439,-6.5438,-6.5438,-6.5437,-6.4603,-6.4666,-6.4734,-6.4817,-6.4868,-6.4927,-6.4991,-6.503,-6.5104,-6.5194,-6.5205,-6.53,-6.5365,-6.5474,-6.5516,-6.5591,-6.5572,-6.56,-6.5608,-6.5615,-6.5621,-6.5439,-6.5605,-6.5605,-6.5605,-6.5604,-6.5604,0,-6.4755,-6.4799,-6.4876,-6.4965,-6.5031,-6.5024,-6.5094,-6.5149,-6.5233,-6.5294,-6.5364,-6.5466,-6.5549,-6.5599,-6.5682,-6.5732,-6.5733,-6.5754,-6.575,-6.576,-6.5632,-6.5607,-6.5752,-6.5752,-6.5752,-6.5752,-6.5752,-6.5752,-6.4842,-6.4949,-6.4972,-6.5105,-6.5148,-6.5242,-6.5283,-6.5339,-6.5388,-6.5503,-6.5572,-6.5605,-6.5662,-6.575,-6.5826,-6.5839,-6.587,-6.5892,-6.5903,-6.5783,-6.5768,-6.5754,-6.573,-6.5899,-6.5899,-6.6025,-6.6026,-6.6027]}]]